Wind_Speed
26 25 25 25 24 23 22 21 20 19 19 18 17 17 17 17 16 16 15 15 15 15 15 15 15 15 15 15 16 16 16 16 16 16 17 17 18 18 18 19 19 19 18
28 27 26 25 25 24 23 22 22 20 19 19 19 18 17 17 17 17 16 16 16 16 15 16 16 16 16 16 16 16 17 17 17 17 17 18 18 18 19 19 19 19 19
30 29 28 26 25 25 25 24 23 22 22 21 20 19 19 18 18 17 17 17 17 17 17 17 17 17 17 17 18 18 18 18 18 17 18 19 19 20 20 20 20 20 21
31 30 30 28 27 26 26 25 25 24 23 23 22 20 20 19 19 18 18 18 18 18 18 18 18 18 18 18 18 18 19 19 19 19 19 20 21 21 21 21 21 22 22
33 32 32 30 29 28 27 27 26 25 25 24 24 22 21 21 20 20 19 19 18 18 19 20 20 20 20 20 19 20 20 20 20 20 21 21 22 22 22 22 23 23 23
34 34 33 32 31 30 29 28 28 27 27 26 25 24 23 23 22 22 20 20 19 19 20 21 21 21 21 20 21 21 21 21 21 21 22 22 23 23 23 23 24 24 25
36 36 35 34 33 32 31 30 30 29 28 27 26 26 25 24 24 23 22 21 21 21 21 22 22 22 22 22 22 22 22 23 23 23 23 24 24 24 24 24 24 25 26
39 38 37 36 34 33 32 31 31 30 29 28 28 27 26 26 25 24 24 23 23 23 23 23 22 22 22 23 23 23 24 24 24 24 24 25 25 25 25 26 26 27 28
40 39 38 37 36 35 34 33 32 31 30 29 29 28 28 28 27 26 26 26 25 24 24 24 24 23 23 24 24 25 25 25 25 25 25 26 26 26 27 27 27 28 28
42 41 40 39 38 37 36 35 33 33 33 31 30 30 30 29 29 27 27 27 27 26 26 26 25 25 25 25 25 26 26 26 25 26 26 26 26 27 27 28 28 28 29
44 42 42 41 40 39 38 37 36 35 34 33 32 31 31 30 30 30 29 29 29 28 28 28 27 27 27 27 27 27 27 27 27 27 27 28 28 29 28 29 30 30 31
45 44 43 42 42 41 40 39 38 37 36 35 34 33 32 32 31 32 31 31 30 30 30 29 29 28 28 28 28 28 28 28 29 29 29 29 29 30 30 31 31 31 32
47 45 45 44 44 43 42 41 40 39 38 37 36 35 34 34 33 33 33 33 32 32 32 31 31 31 31 30 30 30 30 30 30 30 30 31 31 31 31 32 32 33 34
48 47 46 46 46 45 44 42 42 41 40 39 38 37 37 36 35 35 34 34 34 34 34 33 33 33 33 33 33 32 32 33 33 33 33 34 34 34 34 34 35 36 36
49 48 48 47 46 45 45 44 43 43 42 41 40 39 39 38 37 37 36 36 36 35 35 35 35 35 35 35 35 35 35 36 36 36 36 37 37 37 38 38 38 39 39
51 49 48 47 46 46 45 45 45 45 44 43 42 41 41 40 39 39 38 37 37 37 37 37 37 37 37 37 38 38 38 38 38 39 39 39 40 40 40 40 41 41 41
51 51 50 48 47 47 46 46 46 46 45 44 43 43 42 42 41 40 40 39 38 38 38 38 38 38 39 39 39 40 41 41 41 42 42 42 42 42 43 42 43 43 44
52 51 50 50 49 48 48 47 47 46 45 44 44 44 44 43 42 42 41 40 40 39 39 39 39 39 39 40 41 41 42 42 42 43 44 44 44 44 44 44 44 45 45
53 52 50 50 49 49 48 48 47 46 46 46 45 44 44 44 44 43 42 42 41 40 40 40 40 40 40 41 41 42 43 43 43 44 44 44 45 45 44 44 45 46 46
53 53 52 50 49 49 49 48 47 47 47 47 46 46 45 45 44 43 43 43 42 42 41 41 41 40 41 41 42 42 43 43 43 44 45 45 45 45 45 46 46 46 46
54 54 53 52 50 50 49 49 49 49 48 47 47 47 46 45 43 43 43 43 43 43 43 43 42 42 42 42 43 43 44 44 44 45 46 46 46 46 47 47 47 47 46
52 52 53 52 51 51 50 50 50 49 49 48 48 47 46 45 45 44 44 43 43 43 44 44 44 44 44 44 44 45 45 45 46 46 47 46 47 47 47 47 47 46 46
53 53 53 52 51 50 50 50 50 50 49 48 48 47 47 46 45 44 44 44 44 44 45 45 45 45 45 46 46 46 46 46 46 47 47 47 47 47 47 47 47 47 47
53 53 52 52 52 51 51 50 50 50 49 48 47 47 46 45 45 45 45 45 45 45 46 46 46 46 47 47 47 48 47 47 48 48 48 47 47 47 47 48 48 48 48
53 53 51 51 51 51 52 51 51 50 49 48 47 47 47 47 47 47 47 46 46 46 47 47 47 47 48 48 48 48 48 48 47 48 49 49 48 48 48 48 49 49 50
50 51 51 50 50 50 50 50 50 50 49 49 49 48 48 48 47 47 47 47 47 48 48 49 49 49 49 49 49 49 49 49 49 49 50 50 50 50 48 48 49 50 51
Wind_Direction
235 236 237 237 239 238 238 241 243 245 247 248 248 250 253 255 257 258 259 263 266 268 269 272 274 277 279 280 280 282 284 284 285 288 289 291 292 293 295 297 299 299 299
234 235 237 238 238 237 238 240 243 245 246 248 249 251 253 255 257 258 261 264 266 267 267 269 272 274 277 280 281 283 286 288 287 287 289 290 292 294 295 296 298 298 298
234 234 235 237 237 237 238 240 243 246 247 249 251 252 252 255 256 258 261 265 267 268 267 268 269 272 275 279 281 284 284 286 287 288 288 289 290 292 295 295 296 296 297
234 234 235 237 238 239 240 241 244 246 247 250 251 252 253 255 255 258 261 264 267 267 266 267 270 273 275 279 279 283 284 284 285 285 286 289 291 292 293 293 294 296 296
234 234 235 237 238 239 241 243 245 247 249 250 250 251 253 255 256 258 261 265 268 268 266 268 270 273 276 277 278 282 283 283 284 285 287 288 289 290 290 291 293 293 295
234 234 235 237 238 240 242 244 246 248 249 250 250 250 251 254 257 259 262 265 268 267 266 268 271 273 275 275 277 280 282 283 285 286 287 288 290 290 290 290 291 292 294
234 235 236 237 239 240 241 243 245 247 248 249 250 250 252 253 256 259 261 263 266 266 265 268 270 272 273 274 277 279 282 283 284 285 287 288 290 291 291 291 291 291 292
235 235 237 238 239 240 240 242 243 246 247 249 249 251 253 254 256 258 259 262 264 266 266 267 270 272 274 276 278 279 281 283 284 284 285 288 289 290 290 291 291 291 292
235 236 236 238 238 240 240 241 243 245 246 247 248 251 253 255 256 257 260 263 264 265 267 268 270 270 273 276 278 280 282 283 283 284 285 286 288 290 290 291 292 292 292
234 235 236 237 238 239 240 241 243 245 246 247 249 252 254 255 256 257 259 261 263 265 267 269 270 272 274 275 278 279 280 282 283 284 285 287 288 290 292 292 293 293 293
233 234 236 237 239 240 241 242 244 246 248 248 250 253 255 256 257 258 260 260 262 264 266 268 269 272 274 275 277 279 280 280 282 283 285 286 287 289 291 292 293 293 293
233 235 236 237 239 240 242 243 244 247 248 250 251 254 256 257 258 259 260 261 262 263 265 267 269 271 273 275 276 278 279 281 282 283 285 287 288 289 291 292 292 292 293
234 236 237 238 239 240 242 243 245 246 248 250 251 253 255 257 258 260 261 261 262 263 265 266 268 270 271 273 275 276 277 279 281 283 285 287 288 290 290 291 292 292 293
235 236 238 239 240 241 242 243 245 246 248 250 251 253 255 257 259 260 261 262 263 264 265 266 268 269 271 273 275 275 277 278 280 282 285 286 287 288 289 290 291 292 293
234 235 238 240 240 241 243 244 245 246 247 250 251 253 255 257 259 259 260 261 262 263 265 265 267 268 271 272 274 275 276 278 279 281 283 285 286 287 288 290 290 291 292
235 235 237 239 239 241 243 245 246 246 247 249 251 253 255 257 258 258 259 260 262 263 264 266 267 268 270 271 272 274 276 278 279 280 282 284 285 286 288 289 290 290 291
235 236 237 238 240 242 243 245 246 247 248 249 250 253 255 256 257 258 259 261 262 263 264 266 268 269 271 272 273 274 276 278 279 281 282 283 284 286 287 288 289 289 290
235 235 237 239 241 242 243 244 245 247 248 249 251 252 254 255 256 258 259 261 261 263 265 266 268 269 271 272 273 274 276 277 279 281 282 283 284 286 287 288 289 290 290
235 235 237 239 240 241 243 244 245 246 248 249 251 252 254 255 257 257 258 260 261 263 265 266 269 270 271 273 274 275 276 277 278 280 282 283 285 286 288 289 290 290 290
237 236 237 238 240 241 243 244 244 246 248 250 251 253 254 256 257 258 259 260 261 262 264 267 269 270 272 273 275 275 276 277 278 280 282 283 284 286 288 289 290 290 290
238 238 239 239 240 241 243 244 244 246 247 249 251 252 254 255 256 257 259 260 261 263 264 267 269 271 273 274 275 276 276 277 279 280 282 283 284 286 287 288 289 289 289
239 239 240 242 242 242 243 244 245 246 247 248 249 250 252 254 256 258 259 259 261 263 265 267 269 271 273 274 275 277 278 279 279 280 281 283 284 286 287 288 288 288 289
239 239 240 242 242 242 243 244 245 246 247 248 249 250 252 254 256 257 258 260 262 264 266 268 270 271 273 274 276 277 278 279 279 281 282 282 283 285 286 287 287 287 288
239 239 240 242 243 242 243 243 243 245 246 248 249 250 252 254 256 258 259 260 263 265 267 269 271 272 273 275 276 276 277 278 279 280 281 282 283 284 285 285 286 287 288
239 239 241 242 243 243 243 243 243 244 245 247 248 250 251 254 256 258 259 261 263 265 267 270 272 273 274 275 275 276 277 278 279 279 280 282 282 283 283 285 286 287 287
239 240 241 242 242 242 242 243 243 244 244 246 248 249 252 254 256 258 260 262 264 266 268 270 272 273 275 275 276 276 277 278 279 280 280 281 282 282 282 283 285 286 287
Height
5826 5828 5830 5832 5834 5836 5838 5839 5841 5842 5843 5844 5845 5846 5846 5847 5847 5848 5849 5849 5849 5849 5849 5849 5849 5848 5848 5848 5847 5847 5846 5845 5845 5844 5843 5842 5841 5840 5839 5837 5836 5835 5833
5821 5823 5826 5828 5830 5832 5833 5835 5837 5838 5839 5840 5841 5842 5843 5843 5843 5844 5845 5845 5846 5846 5846 5846 5845 5845 5845 5844 5844 5843 5843 5842 5841 5840 5840 5839 5837 5836 5835 5834 5832 5831 5830
5815 5818 5820 5823 5825 5827 5829 5831 5832 5834 5835 5836 5837 5838 5838 5839 5840 5840 5841 5841 5842 5842 5842 5842 5842 5842 5841 5841 5840 5840 5839 5838 5838 5837 5836 5835 5834 5832 5831 5830 5828 5827 5825
5809 5812 5815 5817 5820 5822 5824 5826 5828 5829 5831 5832 5833 5834 5834 5835 5836 5836 5837 5838 5838 5838 5838 5838 5838 5838 5837 5837 5836 5836 5835 5834 5834 5833 5832 5831 5829 5828 5827 5825 5824 5823 5821
5803 5806 5809 5811 5814 5816 5819 5821 5822 5824 5826 5827 5828 5829 5830 5831 5832 5832 5833 5833 5834 5834 5834 5834 5834 5833 5833 5833 5832 5832 5831 5830 5829 5828 5827 5826 5825 5824 5822 5821 5819 5818 5816
5796 5799 5802 5805 5808 5810 5813 5815 5817 5819 5820 5822 5823 5824 5825 5826 5827 5827 5828 5829 5829 5829 5829 5829 5829 5829 5829 5828 5828 5827 5826 5826 5825 5824 5823 5821 5820 5819 5817 5816 5814 5813 5811
5789 5792 5795 5798 5801 5804 5807 5809 5811 5813 5814 5816 5817 5818 5820 5821 5822 5823 5823 5824 5824 5824 5825 5825 5824 5824 5824 5823 5823 5822 5821 5821 5820 5819 5818 5816 5815 5814 5812 5811 5809 5807 5806
5781 5784 5788 5791 5794 5797 5799 5802 5804 5806 5808 5810 5812 5813 5814 5816 5816 5817 5818 5818 5819 5819 5819 5819 5819 5819 5819 5818 5818 5817 5816 5815 5814 5813 5812 5811 5809 5808 5807 5805 5804 5802 5800
5772 5776 5780 5783 5786 5789 5792 5795 5797 5799 5801 5803 5805 5807 5808 5809 5811 5812 5812 5813 5813 5814 5814 5814 5814 5814 5813 5813 5812 5811 5811 5810 5809 5807 5806 5805 5804 5802 5801 5799 5798 5796 5794
5763 5767 5771 5775 5778 5781 5784 5787 5789 5792 5794 5796 5798 5800 5802 5803 5804 5805 5806 5807 5807 5808 5808 5808 5808 5808 5807 5807 5806 5805 5805 5804 5803 5801 5800 5799 5798 5796 5795 5793 5791 5790 5788
5754 5758 5762 5766 5769 5773 5776 5779 5782 5784 5786 5788 5790 5792 5794 5795 5797 5798 5799 5800 5801 5801 5801 5801 5801 5801 5801 5800 5800 5799 5798 5797 5796 5795 5794 5793 5791 5790 5788 5786 5785 5783 5781
5743 5748 5752 5756 5760 5764 5767 5770 5773 5776 5778 5780 5782 5784 5786 5788 5789 5790 5791 5792 5793 5794 5794 5794 5794 5794 5794 5793 5793 5792 5791 5791 5790 5788 5787 5786 5785 5783 5781 5779 5777 5776 5774
5734 5738 5742 5747 5751 5754 5757 5760 5764 5767 5769 5771 5774 5776 5778 5779 5781 5782 5783 5784 5785 5786 5787 5787 5787 5787 5786 5786 5786 5785 5784 5783 5782 5781 5780 5779 5777 5776 5774 5772 5770 5768 5766
5724 5728 5732 5736 5740 5744 5747 5750 5754 5757 5760 5762 5765 5767 5768 5770 5772 5773 5774 5776 5776 5778 5778 5779 5779 5779 5778 5778 5778 5777 5777 5776 5775 5773 5772 5771 5769 5768 5766 5764 5762 5760 5757
5712 5717 5721 5725 5729 5733 5737 5740 5744 5747 5750 5752 5755 5757 5759 5761 5762 5764 5765 5766 5768 5768 5769 5770 5770 5770 5770 5769 5769 5769 5768 5767 5766 5765 5764 5762 5760 5759 5757 5755 5752 5750 5748
5700 5705 5710 5714 5718 5722 5726 5729 5733 5736 5739 5742 5745 5747 5749 5751 5752 5754 5755 5757 5758 5759 5759 5760 5760 5760 5760 5760 5760 5759 5758 5757 5756 5755 5754 5752 5751 5749 5747 5744 5742 5740 5737
5688 5693 5698 5703 5707 5711 5715 5719 5722 5726 5729 5732 5734 5736 5739 5740 5742 5744 5745 5746 5748 5749 5749 5750 5750 5750 5750 5750 5750 5749 5748 5747 5746 5745 5743 5741 5739 5738 5735 5733 5731 5728 5726
5676 5681 5686 5691 5696 5700 5704 5707 5711 5714 5718 5721 5723 5726 5728 5730 5732 5734 5735 5736 5737 5738 5739 5740 5740 5740 5740 5739 5739 5738 5738 5737 5735 5734 5732 5730 5728 5726 5724 5721 5719 5716 5713
5663 5669 5674 5679 5684 5688 5692 5696 5700 5703 5707 5710 5712 5715 5717 5719 5721 5723 5724 5726 5727 5728 5728 5729 5729 5729 5729 5728 5728 5727 5726 5725 5724 5722 5720 5719 5717 5714 5712 5710 5707 5704 5701
5650 5656 5662 5667 5672 5676 5681 5685 5688 5692 5695 5698 5701 5704 5706 5708 5710 5712 5713 5715 5716 5717 5718 5718 5718 5718 5718 5717 5717 5716 5715 5714 5712 5711 5709 5707 5705 5703 5700 5698 5695 5692 5688
5638 5644 5649 5654 5659 5664 5669 5672 5676 5680 5683 5687 5690 5693 5695 5697 5699 5701 5702 5704 5705 5706 5707 5707 5707 5707 5707 5706 5705 5704 5703 5702 5701 5699 5697 5695 5693 5691 5688 5685 5682 5678 5675
5626 5631 5637 5642 5647 5652 5656 5660 5664 5668 5671 5675 5678 5681 5684 5686 5688 5689 5691 5692 5694 5695 5696 5696 5696 5696 5695 5694 5693 5692 5691 5690 5689 5688 5685 5683 5680 5678 5675 5672 5669 5666 5663
5614 5619 5624 5629 5634 5639 5643 5647 5651 5655 5659 5663 5666 5669 5672 5674 5676 5678 5680 5681 5682 5683 5684 5684 5684 5684 5683 5683 5681 5680 5678 5677 5676 5674 5672 5670 5667 5665 5662 5659 5656 5654 5650
5601 5606 5612 5616 5621 5626 5631 5635 5639 5643 5647 5651 5654 5657 5660 5663 5665 5666 5668 5670 5671 5672 5672 5672 5672 5671 5670 5669 5668 5667 5665 5664 5663 5661 5658 5657 5655 5652 5649 5646 5643 5641 5637
5588 5594 5599 5604 5608 5613 5618 5621 5625 5630 5634 5639 5642 5645 5648 5651 5653 5655 5657 5658 5659 5659 5659 5659 5659 5658 5657 5656 5655 5653 5652 5651 5650 5648 5645 5644 5642 5640 5637 5634 5630 5627 5624
5576 5581 5586 5591 5596 5600 5604 5609 5613 5618 5622 5627 5630 5633 5636 5639 5640 5642 5644 5645 5646 5647 5646 5646 5646 5645 5644 5643 5641 5640 5639 5637 5636 5635 5632 5630 5628 5626 5625 5622 5618 5614 5610